Regional Weather Roundup
Issued by NWS Austin/San Antonio, TX

Home | Current Version | Previous Version | Text Only | Print | Product List | Glossary On
Versions: 1 2 3 4 5 6 7 8 9 10 11 12 13 14 15 16 17 18 19 20 21 22 23 24 25 26 27 28 29 30 31 32 33 34 35 36 37 38 39 40 41 42 43 44 45 46 47 48 49 50
000
ASUS44 KEWX 121201
RWREWX
SOUTH TEXAS REGIONAL WEATHER ROUNDUP
NATIONAL WEATHER SERVICE AUSTIN/SAN ANTONIO TX
600 AM CST TUE DEC 12 2017

NOTE: "FAIR" INDICATED FEW OR NO CLOUDS BELOW 12,000 FEET WITH NO
SIGNIFICANT WEATHER AND/OR OBSTRUCTIONS TO VISIBILITY.

* - THESE STATIONS ARE NOT NWS OR FAA STATIONS...AND ARE NOT SUBJECT
    TO NWS AND FAA QUALITY CONTROL.

TXZ171-172-183>190-121300-
TEXAS HILL COUNTRY AND EDWARDS PLATEAU

CITY           SKY/WX    TMP DP  RH WIND       PRES   REMARKS
JUNCTION       CLEAR     31  29  92 CALM      30.37R
6HR MIN TEMP:  30; 6HR MAX TEMP:  39;

*LLANO         CLEAR     45  23  42 CALM      30.40R
BURNET         CLEAR     48  22  35 N7        30.36R WCI  45
6HR MIN TEMP:  48; 6HR MAX TEMP:  56;

*HORSESHOE BAY CLEAR     40  31  71 CALM      30.35R
6HR MIN TEMP:  39; 6HR MAX TEMP:  54;

*KERRVILLE     PTCLDY    37  31  79 CALM      30.34R
6HR MIN TEMP:  33; 6HR MAX TEMP:  41;

*FREDERICKSBRG CLEAR     46  24  43 N8        30.34R WCI  41
6HR MIN TEMP:  32; 6HR MAX TEMP:  46;

*ROCKSPRINGS   NOT AVBL
*BOERNE STAGE  CLEAR     48  27  43 N9        30.32R WCI  44
*CASTROVILLE   CLEAR     42  34  73 W7        30.31R WCI  37
HONDO          PTCLDY    37  31  78 N9        30.31R WCI  30
6HR MIN TEMP:  36; 6HR MAX TEMP:  45;

*UVALDE        PTCLDY    39  33  77 N5        30.32R WCI  36
6HR MIN TEMP:  36; 6HR MAX TEMP:  46;

DEL RIO        CLEAR     43  40  89 NW7       30.34R WCI  39
6HR MIN TEMP:  39; 6HR MAX TEMP:  45;

LAUGHLIN AFB   CLEAR     38  36  91 NW12      30.33R WCI  30
6HR MIN TEMP:  37; 6HR MAX TEMP:  42;

CARRIZO SPRGS  PTCLDY    45  41  87 NW3       30.30R
*EAGLE PASS    SUNNY     41  39  93 NW6       30.32R WCI  37
$$

TXZ173-191>194-202-209-217>225-228-121300-
CENTRAL AND SOUTH CENTRAL TEXAS

CITY           SKY/WX    TMP DP  RH WIND       PRES   REMARKS
GEORGETOWN     CLEAR     45  24  43 N8        30.35R WCI  41
6HR MIN TEMP:  45; 6HR MAX TEMP:  55;

AUSTIN/BERGSTM PTCLDY    49  27  42 N15       30.31R WCI  43
6HR MIN TEMP:  40; 6HR MAX TEMP:  55;

AUSTIN/MABRY   CLEAR     52  23  32 N5        30.33R
6HR MIN TEMP:  50; 6HR MAX TEMP:  56;

*AUSTIN/EXEC   CLEAR     50  25  37 N12       30.31R WCI  46
*LAGO VISTA    CLEAR     48  24  38 N12G18    30.32R WCI  43
6HR MIN TEMP:  48; 6HR MAX TEMP:  59;

SAN MARCOS     CLOUDY    48  30  49 N14       30.32R WCI  42
6HR MIN TEMP:  38; 6HR MAX TEMP:  51;

NEW BRAUNFELS  CLEAR     52  26  36 NE12      30.29R
6HR MIN TEMP:  41; 6HR MAX TEMP:  55;

RANDOLPH AFB   CLEAR     54  27  35 N10G21    30.30R
6HR MIN TEMP:  43; 6HR MAX TEMP:  54;

PT SAN ANTONIO PTCLDY    52  31  46 NE8       30.27R
6HR MIN TEMP:  40; 6HR MAX TEMP:  52;

SAN ANTONIO    PTCLDY    52  28  39 N10       30.31R
6HR MIN TEMP:  42; 6HR MAX TEMP:  53;

STINSON FIELD  CLEAR     49  33  54 N7        30.29R WCI  46
6HR MIN TEMP:  41; 6HR MAX TEMP:  52;

*LA GRANGE     CLEAR     49  33  55 CALM      30.27R
*GIDDINGS      CLEAR     48  28  46 N6        30.30R WCI  46
6HR MIN TEMP:  44; 6HR MAX TEMP:  54;

*GONZALES      CLEAR     47  34  60 N6        30.28R WCI  45
$$

TXZ163>164-176>182-195>201-210>213-226-227-235-121300-
SOUTHEAST TEXAS

CITY           SKY/WX    TMP DP  RH WIND       PRES   REMARKS
COLLEGE STN    CLEAR     47  28  47 N8        30.29R WCI  43
6HR MIN TEMP:  47; 6HR MAX TEMP:  53;

*BRYAN         CLEAR     47  27  45 N6        30.30R WCI  44
*CALDWELL      CLEAR     49  26  40 N9        30.30R WCI  45
*CROCKETT        N/A     45  27  49 N6        30.30R WCI  41
*BRENHAM       CLEAR     47  33  58 N8        30.29R WCI  43
6HR MIN TEMP:  47; 6HR MAX TEMP:  56;

HUNTSVILLE     CLEAR     47  29  49 VRB6      30.27R WCI  44
6HR MIN TEMP:  46; 6HR MAX TEMP:  57;

CONROE         CLEAR     50  30  46 N8        30.26R WCI  47
6HR MIN TEMP:  38; 6HR MAX TEMP:  53;

HOUSTON BUSH   PTCLDY    49  33  54 NW5       30.25R WCI  47
6HR MIN TEMP:  48; 6HR MAX TEMP:  56;

HOUSTON HOBBY  PTCLDY    50  36  58 N10       30.24R WCI  46
6HR MIN TEMP:  47; 6HR MAX TEMP:  53;

*HOUSTON SW AP PTCLDY    48  36  63 N6        30.25R WCI  45
6HR MIN TEMP:  46; 6HR MAX TEMP:  52;

PEARLAND       PTCLDY    52  36  54 N8        30.25R
6HR MIN TEMP:  44; 6HR MAX TEMP:  52;

HOUSTON HOOKS  PTCLDY    51  32  48 N7        30.25R
6HR MIN TEMP:  43; 6HR MAX TEMP:  53;

ELLINGTON FLD  PTCLDY    54  41  62 N7        30.26R
SUGAR LAND     PTCLDY    48  36  63 N8        30.25R WCI  44
6HR MIN TEMP:  48; 6HR MAX TEMP:  53;

*HOUSTON EXEC  NOT AVBL
*CLEVELAND MUN PTCLDY    49  30  48 N7        30.26R WCI  46
6HR MIN TEMP:  39; 6HR MAX TEMP:  50;

*WHARTON       CLOUDY    45  34  66 N6        30.27R WCI  42
6HR MIN TEMP:  43; 6HR MAX TEMP:  51;

*COLUMBUS      FAIR     N/A N/A N/A N6        30.28R
*EAGLE LAKE    SUNNY     48  36  61 N7        30.26R WCI  45
6HR MIN TEMP:  48; 6HR MAX TEMP:  56;

$$

TXZ214>216-236>238-121300-
THE UPPER TEXAS COAST

CITY           SKY/WX    TMP DP  RH WIND       PRES   REMARKS
*ORANGE        CLEAR     49  38  65 N7        30.23R WCI  46
6HR MIN TEMP:  49; 6HR MAX TEMP:  54;

PORT ARTHUR    CLEAR     48  36  63 N9        30.21R WCI  44
6HR MIN TEMP:  45; 6HR MAX TEMP:  49;

GALVESTON      CLEAR     56  42  59 N16       30.23R
6HR MIN TEMP:  51; 6HR MAX TEMP:  57;

ANGLETON       CLEAR     51  37  58 N8        30.23R
6HR MIN TEMP:  43; 6HR MAX TEMP:  53;

*BAY CITY      CLOUDY    47  40  76 NW3       30.23R
PALACIOS       CLOUDY    43  42  97 NW7       30.25R WCI  39
6HR MIN TEMP:  42; 6HR MAX TEMP:  51;

$$

TXZ229>234-239>247-121300-
TEXAS COASTAL BEND AND RIO GRANDE PLAINS

CITY           SKY/WX    TMP DP  RH WIND       PRES   REMARKS
VICTORIA       CLOUDY    40  36  86 NW8       30.26R WCI  34
6HR MIN TEMP:  40; 6HR MAX TEMP:  49;

*BEEVILLE      CLOUDY    50  42  74 NW6       30.27R WCI  47
6HR MIN TEMP:  49; 6HR MAX TEMP:  55;

ROCKPORT       PTCLDY    50  44  80 W6        30.26R WCI  48
6HR MIN TEMP:  48; 6HR MAX TEMP:  56;

*PORT ARANSAS  NOT AVBL
*PORT LAVACA   CLOUDY    44  39  84 NW6       30.26R WCI  40
6HR MIN TEMP:  44; 6HR MAX TEMP:  48;

*INGLESIDE     NOT AVBL
CORPUS CHRISTI MOCLDY    48  43  82 NW7       30.25R WCI  45
6HR MIN TEMP:  47; 6HR MAX TEMP:  53;

CORPUS NAS     PTCLDY    54  47  77 NW7       30.25R
6HR MIN TEMP:  49; 6HR MAX TEMP:  58;

*ROBSTOWN      PTCLDY    50  42  73 NW5       30.27R WCI  48
ALICE          PTCLDY    50  40  68 NW8       30.26R WCI  47
6HR MIN TEMP:  46; 6HR MAX TEMP:  54;

KINGSVILLE NAS PTCLDY    45  43  93 NW6       30.27R WCI  42
6HR MIN TEMP:  44; 6HR MAX TEMP:  54;

COTULLA        PTCLDY    44  41  89 NW6       30.31R WCI  41
6HR MIN TEMP:  44; 6HR MAX TEMP:  52;

*FAITH RANCH   PTCLDY    46  45  93 NW7       30.31R WCI  43
LAREDO           N/A    N/A N/A N/A MISG        N/A
$$

TXZ248>255-121300-
DEEP SOUTH TEXAS

CITY           SKY/WX    TMP DP  RH WIND       PRES   REMARKS
BROWNSVILLE    CLOUDY    53  44  71 W5        30.27R
6HR MIN TEMP:  51; 6HR MAX TEMP:  55;

PORT ISABEL    CLOUDY    53  44  71 W5        30.25R
6HR MIN TEMP:  51; 6HR MAX TEMP:  56;

*SOUTH PADRE   NOT AVBL
HARLINGEN      PTCLDY    50  45  83 W6        30.25R WCI  48
6HR MIN TEMP:  49; 6HR MAX TEMP:  54;

*HEBBRONVILLE  CLOUDY    48  36  62 NW7       30.28R WCI  45
MCALLEN        CLOUDY    53  44  71 CALM      30.27R
6HR MIN TEMP:  52; 6HR MAX TEMP:  55;

*WESLACO


USA.gov is the U.S. government's official web portal to all federal, state and local government web resources and services.